EUTELSAT 174A

Last updated on Nov. 18, 2019, 4:21 a.m. UTC

1 28924U 05052A   19321.19899443  .00000018  00000-0  00000+0 0  9998
2 28924   0.0689   7.5184 0006284 229.3150  64.7970  1.00270977 50873
UTC
Height (km)
Latitude
Longitude
Inclination
Orbital Period
UTC large
Height (km)
Speed (km/s)
/
Latitude / Longitude
Inclination (degrees)
Orbital Period (minutes)
Azimuth
Elevation
Range (km)
Doppler Factor
iOS Compass Heading
iOS Angle

Next 30 passes for location: Hong Kong

Rise time Rise Azimuth (degrees) Set time Set Azimuth (degrees) Duration Max altitude (degrees)

No matching passes for this satellites